EW8578 Weather Reports


Display with metric or nautical units.
time (UTC)temp
F
wind
direction
speed
MPH
gust
MPH
rain 1hr
in
rain 24hr
in
rain mn
in
humidity
%
barometer
mb
20260503004604 44 44 0.0 6.0 0.00 0.11 0.00 87 1010.9
20260503004056 44 44 0.0 6.0 0.00 0.11 0.00 87 1011.0
20260503003555 44 44 1.0 6.0 0.00 0.11 0.00 87 1011.0
20260503003054 44 5 1.0 6.0 0.00 0.11 0.00 87 1010.9
20260503002557 44 27 0.0 5.0 0.00 0.11 0.00 87 1011.0
20260503002054 44 348 1.0 5.0 0.00 0.11 0.00 87 1011.0
20260503001556 44 323 1.0 5.0 0.00 0.11 0.00 87 1011.0
20260503001057 44 317 1.0 4.0 0.00 0.11 0.00 87 1011.0
20260503000553 44 314 0.0 4.0 0.00 0.11 0.11 87 1011.0
20260503000057 44 67 0.0 10.0 0.00 0.11 0.11 87 1010.9
20260502235551 44 67 2.0 10.0 0.00 0.11 0.11 87 1011.0
20260502235051 44 5 1.0 10.0 0.00 0.11 0.11 87 1011.1
20260502234602 44 55 0.0 10.0 0.00 0.11 0.11 88 1011.2
20260502234052 44 55 0.0 10.0 0.00 0.11 0.11 88 1011.2
20260502233550 44 121 0.0 10.0 0.00 0.11 0.11 87 1011.2
20260502233051 44 36 1.0 10.0 0.00 0.11 0.11 88 1011.2
20260502232550 45 309 0.0 10.0 0.00 0.11 0.11 88 1011.1
20260502232050 45 329 1.0 10.0 0.00 0.11 0.11 88 1011.1
20260502231550 45 321 2.0 10.0 0.00 0.11 0.11 88 1011.1
20260502231049 45 344 3.0 10.0 0.00 0.11 0.11 88 1011.1
20260502230549 45 360 4.0 10.0 0.00 0.11 0.11 88 1011.1
20260502230048 45 9 3.0 10.0 0.00 0.11 0.11 88 1011.0
20260502225551 45 360 2.0 10.0 0.00 0.11 0.11 88 1011.0
20260502225047 45 309 3.0 10.0 0.00 0.11 0.11 88 1011.0
20260502224547 45 360 4.0 10.0 0.00 0.11 0.11 89 1010.8
20260502224046 45 5 4.0 10.0 0.00 0.11 0.11 89 1010.8
20260502223546 45 317 4.0 10.0 0.00 0.11 0.11 88 1010.8
20260502223058 45 331 3.0 10.0 0.00 0.11 0.11 88 1010.8
20260502222546 45 313 4.0 10.0 0.00 0.11 0.11 88 1010.9
20260502222047 45 340 4.0 10.0 0.00 0.11 0.11 88 1010.8
20260502221546 46 336 5.0 10.0 0.00 0.11 0.11 88 1010.9
20260502221046 46 5 5.0 10.0 0.00 0.11 0.11 88 1010.9
20260502220544 46 360 5.0 9.0 0.00 0.11 0.11 88 1011.0
20260502220047 46 346 5.0 9.0 0.00 0.11 0.11 88 1011.0
20260502215543 46 355 5.0 9.0 0.00 0.11 0.11 88 1011.0
20260502215041 46 360 4.0 9.0 0.00 0.11 0.11 87 1011.0
20260502214604 46 333 4.0 8.0 0.00 0.11 0.11 87 1011.0
20260502214041 46 355 4.0 8.0 0.00 0.11 0.11 86 1011.0
20260502213545 46 5 2.0 8.0 0.00 0.11 0.11 86 1011.1
20260502213100 46 336 2.0 8.0 0.00 0.11 0.11 86 1011.1
20260502212541 47 318 3.0 8.0 0.00 0.11 0.11 86 1011.1
20260502212040 47 360 4.0 8.0 0.00 0.11 0.11 86 1011.1
20260502211543 47 320 3.0 6.0 0.00 0.11 0.11 85 1011.1
20260502211043 47 331 1.0 6.0 0.00 0.11 0.11 85 1011.0
20260502210540 47 308 2.0 6.0 0.00 0.11 0.11 85 1011.0
20260502210040 47 5 2.0 6.0 0.00 0.11 0.11 85 1011.0
20260502205539 47 360 3.0 6.0 0.00 0.11 0.11 85 1011.0
20260502205039 47 360 0.0 3.0 0.00 0.11 0.11 84 1011.0
20260502204541 47 64 0.0 2.0 0.00 0.11 0.11 84 1010.9
20260502204044 47 50 0.0 2.0 0.00 0.11 0.11 83 1010.9
20260502203539 47 50 0.0 6.0 0.00 0.11 0.11 83 1010.9
20260502203104 47 50 0.0 6.0 0.00 0.11 0.11 83 1010.9
20260502202539 47 50 0.0 6.0 0.00 0.11 0.11 83 1010.9
20260502202042 47 50 0.0 6.0 0.00 0.11 0.11 82 1010.9
20260502201543 47 50 2.0 6.0 0.00 0.11 0.11 82 1010.8
20260502201039 47 38 2.0 6.0 0.00 0.11 0.11 82 1010.7
20260502200539 47 35 1.0 6.0 0.00 0.11 0.11 82 1010.7
20260502200045 47 47 1.0 6.0 0.00 0.11 0.11 81 1010.6
20260502195539 48 34 1.0 6.0 0.00 0.11 0.11 81 1010.7
20260502195038 48 61 2.0 6.0 0.00 0.11 0.11 81 1010.6
20260502194539 48 56 1.0 6.0 0.00 0.11 0.11 81 1010.4
20260502194039 48 67 1.0 6.0 0.00 0.11 0.11 81 1010.4
20260502193539 47 75 2.0 6.0 0.00 0.11 0.11 81 1010.4
20260502193039 47 73 2.0 6.0 0.00 0.11 0.11 81 1010.4
20260502192538 47 47 1.0 6.0 0.00 0.11 0.11 81 1010.5
20260502192038 47 64 1.0 6.0 0.00 0.11 0.11 82 1010.4
20260502191543 47 68 1.0 6.0 0.00 0.11 0.11 82 1010.4
20260502191038 47 54 2.0 6.0 0.00 0.11 0.11 82 1010.4
20260502190541 48 41 1.0 6.0 0.00 0.11 0.11 82 1010.5
20260502190038 48 46 2.0 6.0 0.00 0.11 0.11 82 1010.6
20260502185537 48 49 1.0 6.0 0.00 0.11 0.11 82 1010.7
20260502185041 48 26 2.0 6.0 0.00 0.11 0.11 81 1010.6
20260502184537 49 28 2.0 6.0 0.00 0.11 0.11 79 1010.6
20260502184037 49 37 2.0 6.0 0.00 0.11 0.11 79 1010.6
20260502183537 49 28 2.0 6.0 0.00 0.11 0.11 79 1010.6
20260502183038 49 36 1.0 6.0 0.00 0.11 0.11 80 1010.6
20260502182537 48 37 0.0 6.0 0.00 0.11 0.11 80 1010.5
20260502182040 48 37 2.0 6.0 0.00 0.11 0.11 81 1010.5
20260502181536 48 33 2.0 6.0 0.00 0.11 0.11 82 1010.5
20260502181038 48 48 3.0 6.0 0.00 0.11 0.11 83 1010.5
20260502180536 48 65 2.0 5.0 0.00 0.11 0.11 84 1010.6
20260502164032 47 46 0.0 4.0 0.00 0.11 0.11 88 1011.0
20260502163531 47 42 1.0 4.0 0.00 0.11 0.11 88 1011.1
20260502163040 47 34 1.0 4.0 0.00 0.11 0.11 88 1011.1
20260502162533 47 5 2.0 4.0 0.00 0.11 0.11 88 1011.1
20260502162030 47 13 0.0 4.0 0.00 0.11 0.11 88 1011.1
20260502161542 47 13 0.0 4.0 0.00 0.11 0.11 88 1011.1
20260502161029 47 13 0.0 4.0 0.00 0.11 0.11 88 1011.2
20260502160529 47 13 0.0 4.0 0.00 0.11 0.11 88 1011.2
20260502152027 47 355 1.0 2.0 0.00 0.11 0.11 88 1011.5
20260502151525 47 317 0.0 2.0 0.00 0.11 0.11 89 1011.5
20260502151025 47 317 1.0 2.0 0.00 0.11 0.11 88 1011.5
20260502150525 47 275 0.0 2.0 0.00 0.11 0.11 89 1011.7
20260502130523 46 202 1.0 5.0 0.00 0.11 0.11 88 1012.5
20260502123520 46 5 0.0 5.0 0.00 0.11 0.11 88 1012.5
20260502123030 46 5 0.0 5.0 0.00 0.11 0.11 88 1012.6
20260502122520 46 5 0.0 5.0 0.00 0.11 0.11 88 1012.6
20260502122020 46 5 0.0 5.0 0.00 0.11 0.11 88 1012.5
20260502121525 46 5 1.0 5.0 0.00 0.11 0.11 89 1012.4
20260502121020 46 5 2.0 5.0 0.01 0.11 0.11 89 1012.4
20260502120523 46 5 3.0 5.0 0.01 0.11 0.11 89 1012.3
20260502115521 46 24 1.0 5.0 0.02 0.11 0.11 89 1012.1
20260502115018 46 19 1.0 5.0 0.02 0.11 0.11 89 1012.2
20260502114517 46 15 2.0 5.0 0.02 0.11 0.11 89 1012.5
20260502114019 46 9 2.0 5.0 0.02 0.11 0.11 89 1012.5
20260502113523 46 5 2.0 5.0 0.02 0.11 0.11 89 1012.6
20260502113021 46 360 3.0 5.0 0.02 0.11 0.11 89 1012.7
20260502112519 46 9 3.0 5.0 0.02 0.11 0.11 89 1012.5
20260502112018 46 360 3.0 5.0 0.02 0.11 0.11 89 1012.6
20260502111517 46 5 1.0 5.0 0.02 0.11 0.11 89 1012.6
20260502111018 46 5 1.0 5.0 0.02 0.11 0.11 89 1012.7
20260502110517 46 5 1.0 5.0 0.02 0.10 0.10 89 1012.8
20260502110021 46 25 1.0 5.0 0.02 0.10 0.10 89 1012.9
20260502105522 47 27 1.0 5.0 0.02 0.09 0.09 89 1012.9
20260502105017 46 42 1.0 5.0 0.02 0.09 0.09 89 1012.9
20260502104519 47 24 1.0 3.0 0.02 0.09 0.09 88 1012.9
20260502104016 47 39 1.0 3.0 0.02 0.09 0.09 88 1012.9
20260502103516 47 28 1.0 3.0 0.03 0.09 0.09 88 1012.9
20260502103018 47 34 1.0 3.0 0.03 0.09 0.09 88 1012.8
20260502102516 46 13 1.0 3.0 0.02 0.09 0.09 88 1012.8
20260502102015 47 19 1.0 4.0 0.03 0.09 0.09 88 1012.8
20260502101516 46 11 1.0 4.0 0.03 0.09 0.09 88 1012.8
20260502101015 46 28 1.0 4.0 0.03 0.09 0.09 87 1012.8
20260502100515 46 46 2.0 4.0 0.03 0.09 0.09 87 1012.8
20260502091512 47 103 0.0 3.0 0.02 0.06 0.06 86 1012.8
20260502091012 47 103 0.0 3.0 0.02 0.06 0.06 86 1012.8
20260502090512 47 103 0.0 3.0 0.02 0.06 0.06 86 1012.8
20260502071505 49 123 0.0 4.0 0.00 0.00 0.00 76 1012.7
20260502071004 49 115 2.0 4.0 0.00 0.00 0.00 75 1012.6
20260502070507 49 61 1.0 4.0 0.00 0.00 0.00 74 1012.6
20260502070004 49 5 0.0 2.0 0.00 0.00 0.00 73 1012.7
20260502065504 49 29 0.0 2.0 0.00 0.00 0.00 73 1012.7
20260502065004 49 29 0.0 4.0 0.00 0.00 0.00 72 1012.6
20260502064504 49 22 1.0 4.0 0.00 0.00 0.00 71 1012.5
20260502064005 49 22 1.0 4.0 0.00 0.00 0.00 71 1012.5
20260502063506 50 5 2.0 5.0 0.00 0.00 0.00 72 1012.6
20260502063006 50 5 1.0 5.0 0.00 0.00 0.00 68 1012.6
20260502062504 49 50 2.0 8.0 0.00 0.00 0.00 66 1012.6
20260502062004 49 31 3.0 8.0 0.00 0.00 0.00 66 1012.6
20260502061503 49 26 1.0 8.0 0.00 0.00 0.00 66 1012.6
20260502061004 49 14 1.0 8.0 0.00 0.00 0.00 66 1012.7
20260502060503 49 42 2.0 8.0 0.00 0.00 0.00 66 1012.6
20260502060003 49 15 1.0 8.0 0.00 0.00 0.00 67 1012.6
20260502055502 49 29 1.0 8.0 0.00 0.00 0.00 66 1012.7
20260502055002 49 221 2.0 8.0 0.00 0.00 0.00 64 1012.7
20260502054501 49 122 3.0 8.0 0.00 0.00 0.00 65 1012.8
20260502054001 49 132 2.0 8.0 0.00 0.00 0.00 65 1012.8
20260502053600 49 192 0.0 8.0 0.00 0.00 0.00 67 1013.0
20260502053101 49 242 2.0 8.0 0.00 0.00 0.00 65 1012.9
20260502052600 49 216 4.0 8.0 0.00 0.00 0.00 68 1012.9
20260502052100 49 208 1.0 7.0 0.00 0.00 0.00 67 1013.0
20260502051608 49 94 0.0 7.0 0.00 0.00 0.00 66 1013.0
20260502051059 49 182 2.0 9.0 0.00 0.00 0.00 67 1013.1
20260502050559 49 199 5.0 9.0 0.00 0.00 0.00 69 1013.2
20260502050059 48 135 3.0 8.0 0.00 0.00 0.00 73 1013.2
20260502045602 48 153 2.0 4.0 0.00 0.00 0.00 74 1013.3
20260502045058 48 173 1.0 4.0 0.00 0.00 0.00 75 1013.3
20260502044623 49 51 0.0 4.0 0.00 0.00 0.00 75 1013.3
20260502043603 49 51 1.0 4.0 0.00 0.00 0.00 75 1013.3
20260502043104 48 44 1.0 4.0 0.00 0.00 0.00 75 1013.1
20260502042559 48 78 2.0 7.0 0.00 0.00 0.00 76 1013.0
20260502042102 48 191 2.0 7.0 0.00 0.00 0.00 75 1012.9
20260502041559 48 198 0.0 7.0 0.00 0.00 0.00 75 1012.9
20260502041101 49 62 1.0 7.0 0.00 0.00 0.00 75 1012.9
20260502040558 49 190 3.0 11.0 0.00 0.00 0.00 75 1012.9
20260502040105 49 207 6.0 11.0 0.00 0.00 0.00 74 1012.9
20260502035558 49 218 6.0 11.0 0.00 0.00 0.00 72 1012.8
20260502035058 50 228 4.0 11.0 0.00 0.00 0.00 68 1012.8
20260502034557 50 215 2.0 11.0 0.00 0.00 0.00 63 1012.9
20260502033556 50 212 5.0 11.0 0.00 0.00 0.00 61 1013.1
20260502033056 51 212 5.0 11.0 0.00 0.00 0.00 60 1013.1
20260502032556 51 206 6.0 11.0 0.00 0.00 0.00 51 1013.1
20260502032056 51 202 6.0 9.0 0.00 0.00 0.00 59 1013.2
20260502031554 50 209 5.0 9.0 0.00 0.00 0.00 51 1013.2
20260502031054 50 163 3.0 9.0 0.00 0.00 0.00 56 1013.3
20260502030552 50 211 5.0 10.0 0.00 0.00 0.00 60 1013.4
20260502030053 50 206 5.0 10.0 0.00 0.00 0.00 57 1013.4
20260502025554 50 211 4.0 10.0 0.00 0.00 0.00 62 1013.3
20260502025052 50 196 4.0 16.0 0.00 0.00 0.00 61 1013.4
20260502024551 50 198 4.0 16.0 0.00 0.00 0.00 56 1013.4
20260502023553 50 206 5.0 16.0 0.00 0.00 0.00 61 1013.6
20260502023053 51 202 8.0 16.0 0.00 0.00 0.00 63 1013.6
20260502022553 51 225 7.0 16.0 0.00 0.00 0.00 59 1013.7
20260502022052 51 210 7.0 16.0 0.00 0.00 0.00 60 1013.8
20260502021550 51 202 7.0 16.0 0.00 0.00 0.00 60 1013.8
20260502021051 51 225 8.0 16.0 0.00 0.00 0.00 62 1013.9
20260502020550 52 219 10.0 16.0 0.00 0.00 0.00 59 1013.9
20260502020049 52 225 8.0 16.0 0.00 0.00 0.00 57 1014.0
20260502015548 51 201 10.0 16.0 0.00 0.00 0.00 61 1013.9
20260502015048 51 201 9.0 16.0 0.00 0.00 0.00 63 1014.0
20260502014546 50 195 6.0 16.0 0.00 0.00 0.00 68 1014.1
20260502013545 48 232 3.0 16.0 0.00 0.00 0.00 74 1014.4
20260502013045 49 225 7.0 16.0 0.00 0.00 0.00 76 1014.4
20260502012546 49 235 8.0 16.0 0.00 0.00 0.00 76 1014.5
20260502012043 49 242 9.0 16.0 0.00 0.00 0.00 75 1014.6
20260502011543 50 227 11.0 16.0 0.00 0.00 0.00 73 1014.7
20260502011042 51 234 10.0 15.0 0.00 0.00 0.00 67 1014.7
20260502010542 52 178 9.0 15.0 0.00 0.00 0.00 60 1014.6
20260502010041 51 225 7.0 15.0 0.00 0.00 0.00 59 1014.6
20260502005540 51 206 8.0 15.0 0.00 0.00 0.00 59 1014.5
20260502005041 50 211 5.0 15.0 0.00 0.00 0.00 65 1014.5